Location: Barrio Las Umbrías
(40.4173°N, 4.8685°W)
Time: 12:29:05
(UTC+00:00)

CSL-04 Rocket - Pass Details

Date: 17 August 2022
Orbit: 806 x 860 km, 98.8° (Epoch: 27 September)

Event Time Altitude Azimuth Distance (km) Brightness Sun altitude
Rises 20:02:10 0° 165° (SSE) 3,373 6.4 -9.3°
Reaches altitude 10° 20:04:32 10° 166° (SSE) 2,435 5.7 -9.7°
Maximum altitude 20:09:56 88° 254° (WSW) 831 3.7 -10.6°
Drops below altitude 10° 20:15:18 10° 346° (NNW) 2,418 6.7 -11.5°
Sets 20:17:38 0° 347° (NNW) 3,347 7.5 -11.9°
